CW9648 Weather Reports


Display with metric or nautical units.
time (UTC)temp
F
wind
direction
speed
MPH
gust
MPH
rain 1hr
in
rain 24hr
in
rain mn
in
humidity
%
barometer
mb
20260906143003 77 9 1.0 2.0 0.00 0.90 0.01 40 1016.2
20260906142503 77 342 1.0 3.0 0.00 0.90 0.01 41 1016.2
20260906142003 76 327 1.0 3.0 0.00 0.90 0.01 41 1016.2
20260906141524 76 322 1.0 2.0 0.00 0.90 0.01 41 1016.2
20260906141024 76 312 1.0 2.0 0.00 0.90 0.01 41 1016.1
20260906140503 76 321 1.0 3.0 0.00 0.90 0.01 41 1016.2
20260906140003 76 339 1.0 3.0 0.00 0.90 0.01 41 1016.2
20260906135503 76 354 1.0 2.0 0.00 0.90 0.01 41 1016.1
20260906135003 75 18 0.0 2.0 0.00 0.90 0.01 41 1016.2
20260906134503 75 15 1.0 2.0 0.00 0.90 0.01 41 1016.1
20260906134003 76 349 1.0 3.0 0.00 0.90 0.01 41 1016.2
20260906133503 76 325 1.0 3.0 0.00 0.90 0.01 41 1016.1
20260906133003 76 42 0.0 2.0 0.00 0.90 0.01 41 1016.1
20260906132504 75 347 0.0 3.0 0.00 0.90 0.01 41 1016.1
20260906132003 75 330 1.0 3.0 0.00 0.90 0.01 41 1016.0
20260906131524 75 333 0.0 3.0 0.00 0.90 0.01 41 1015.9
20260906131024 75 286 0.0 1.0 0.00 0.90 0.01 41 1015.8
20260906130503 75 286 0.0 1.0 0.00 0.90 0.01 41 1015.7
20260906130003 75 286 0.0 1.0 0.00 0.90 0.01 41 1015.7
20260906125503 75 286 0.0 1.0 0.00 0.90 0.01 41 1015.5
20260906125003 75 255 0.0 1.0 0.00 0.90 0.01 41 1015.5
20260906124524 75 234 0.0 1.0 0.00 0.90 0.01 41 1015.6
20260906124024 75 224 0.0 2.0 0.00 0.90 0.01 41 1015.4
20260906123503 75 224 0.0 2.0 0.00 0.90 0.01 41 1015.3
20260906123024 75 0 0.0 0.0 0.00 0.90 0.01 41 1015.3
20260906122524 75 0 0.0 0.0 0.00 0.90 0.01 41 1015.4
20260906122024 75 355 0.0 1.0 0.00 0.90 0.01 41 1015.4
20260906121503 75 355 0.0 1.0 0.00 0.90 0.01 41 1015.3
20260906121003 75 355 0.0 1.0 0.00 0.90 0.01 41 1015.2
20260906120503 75 355 0.0 1.0 0.00 0.90 0.01 41 1015.1
20260906120004 74 0 0.0 0.0 0.00 0.90 0.01 41 1015.0
20260906115524 74 0 0.0 0.0 0.00 0.90 0.01 41 1015.1
20260906115003 74 355 0.0 1.0 0.00 0.90 0.01 41 1015.1
20260906114503 74 355 0.0 1.0 0.00 0.90 0.01 41 1015.0
20260906114003 74 0 0.0 0.0 0.00 0.90 0.01 41 1014.8
20260906113503 74 355 0.0 1.0 0.00 0.90 0.01 41 1014.9
20260906113003 74 355 0.0 1.0 0.00 0.90 0.01 41 1014.8
20260906112503 74 355 0.0 1.0 0.00 0.90 0.01 41 1014.6
20260906112003 74 355 0.0 1.0 0.00 0.90 0.01 41 1014.6
20260906111503 74 355 0.0 1.0 0.00 0.90 0.01 41 1014.5
20260906111024 74 348 0.0 2.0 0.00 0.90 0.01 41 1014.5
20260906110504 74 355 1.0 2.0 0.00 0.90 0.01 41 1014.5
20260906110004 74 97 1.0 2.0 0.00 0.90 0.01 41 1014.4
20260906105504 74 142 1.0 2.0 0.00 0.90 0.01 41 1014.4
20260906105004 74 142 0.0 2.0 0.00 0.90 0.01 41 1014.4
20260906104504 74 142 0.0 1.0 0.00 0.90 0.01 41 1014.3
20260906104004 74 0 0.0 0.0 0.00 0.90 0.01 41 1014.3
20260906103525 74 0 0.0 0.0 0.00 0.90 0.01 41 1014.2
20260906103004 74 0 0.0 0.0 0.00 0.90 0.01 41 1014.2
20260906102504 74 0 0.0 0.0 0.00 0.90 0.01 41 1014.2
20260906102004 74 0 0.0 0.0 0.00 0.90 0.01 41 1014.1
20260906101504 74 0 0.0 0.0 0.00 0.90 0.01 41 1014.2
20260906101025 74 0 0.0 0.0 0.00 0.90 0.01 41 1014.2
20260906100525 74 0 0.0 0.0 0.00 0.90 0.01 41 1014.2
20260906100025 74 0 0.0 0.0 0.00 0.90 0.01 41 1014.1
20260906095525 74 0 0.0 0.0 0.00 0.90 0.01 41 1014.1
20260906095004 74 0 0.0 0.0 0.00 0.90 0.01 41 1014.1
20260906094504 74 0 0.0 0.0 0.00 0.90 0.01 41 1013.9
20260906094004 74 0 0.0 0.0 0.00 0.90 0.01 41 1014.0
20260906093504 74 0 0.0 0.0 0.00 0.90 0.01 41 1014.0
20260906093004 74 0 0.0 0.0 0.00 0.90 0.01 41 1013.9
20260906092504 74 0 0.0 0.0 0.01 0.90 0.01 41 1014.0
20260906092004 74 0 0.0 0.0 0.01 0.90 0.01 41 1013.9
20260906091525 74 0 0.0 0.0 0.01 0.90 0.01 41 1013.9
20260906091004 74 0 0.0 0.0 0.01 0.90 0.01 41 1013.9
20260906090504 74 0 0.0 0.0 0.01 0.90 0.01 41 1013.9
20260906090004 74 0 0.0 0.0 0.01 0.90 0.01 41 1013.7
20260906085504 74 0 0.0 0.0 0.01 0.90 0.01 41 1013.8
20260906085025 74 0 0.0 0.0 0.01 0.90 0.01 41 1013.9
20260906084504 74 0 0.0 0.0 0.01 0.90 0.01 41 1013.9
20260906084004 75 0 0.0 0.0 0.01 0.90 0.01 41 1013.9
20260906083504 75 0 0.0 0.0 0.01 0.90 0.01 41 1013.9
20260906083025 75 0 0.0 0.0 0.01 0.90 0.01 41 1013.9
20260906082504 75 0 0.0 0.0 0.00 0.89 0.00 41 1014.0
20260906082004 75 0 0.0 0.0 0.00 0.89 0.00 41 1014.1
20260906081504 75 0 0.0 0.0 0.00 0.89 0.00 41 1014.1
20260906081004 75 0 0.0 0.0 0.00 0.89 0.00 41 1014.1
20260906080525 75 0 0.0 0.0 0.00 0.89 0.00 41 1014.1
20260906080025 75 0 0.0 0.0 0.00 0.89 0.00 41 1014.1
20260906075504 75 0 0.0 0.0 0.00 0.89 0.00 41 1014.2
20260906075004 75 0 0.0 0.0 0.00 0.89 0.00 41 1014.2
20260906074504 75 0 0.0 0.0 0.00 0.89 0.00 41 1014.1
20260906074004 75 0 0.0 0.0 0.00 0.89 0.00 41 1014.1
20260906073504 75 0 0.0 0.0 0.00 0.89 0.00 41 1014.1
20260906073004 75 0 0.0 0.0 0.00 0.89 0.00 41 1014.1
20260906072525 75 0 0.0 0.0 0.00 0.89 0.00 41 1014.2
20260906072004 75 0 0.0 0.0 0.00 0.89 0.00 41 1014.2
20260906071504 75 0 0.0 0.0 0.00 0.89 0.00 41 1014.2
20260906071004 75 0 0.0 0.0 0.00 0.89 0.00 41 1014.3
20260906070504 75 0 0.0 0.0 0.00 0.89 0.00 41 1014.4
20260906070025 75 0 0.0 0.0 0.00 0.89 0.00 41 1014.4
20260906065525 75 0 0.0 0.0 0.00 0.89 0.00 41 1014.4
20260906065004 75 0 0.0 0.0 0.00 0.89 0.00 40 1014.4
20260906064504 75 0 0.0 0.0 0.00 0.89 0.00 40 1014.5
20260906064004 75 0 0.0 0.0 0.00 0.89 0.00 40 1014.5
20260906063504 75 0 0.0 0.0 0.00 0.89 0.00 40 1014.6
20260906063004 75 0 0.0 0.0 0.00 0.89 0.00 40 1014.5
20260906062504 75 0 0.0 0.0 0.00 0.89 0.00 40 1014.5
20260906062004 75 0 0.0 0.0 0.00 0.89 0.00 40 1014.4
20260906061526 75 0 0.0 0.0 0.00 0.89 0.00 40 1014.4
20260906061025 75 0 0.0 0.0 0.00 0.89 0.00 40 1014.5
20260906060504 75 0 0.0 0.0 0.00 0.89 0.00 40 1014.4
20260906060004 75 0 0.0 0.0 0.00 0.89 0.00 40 1014.4
20260906055504 75 0 0.0 0.0 0.00 0.89 0.00 40 1014.4
20260906055004 75 0 0.0 0.0 0.00 0.89 0.00 41 1014.4
20260906054504 75 0 0.0 0.0 0.00 0.89 0.00 41 1014.3
20260906054025 75 0 0.0 0.0 0.00 0.89 0.00 41 1014.5
20260906053504 76 0 0.0 0.0 0.00 0.89 0.00 40 1014.5
20260906053004 75 0 0.0 0.0 0.00 0.89 0.00 41 1014.4
20260906052504 75 0 0.0 0.0 0.00 0.89 0.00 40 1014.1
20260906052004 76 0 0.0 0.0 0.00 0.89 0.00 40 1014.1
20260906051525 75 0 0.0 0.0 0.00 0.89 0.00 40 1014.0
20260906051025 75 0 0.0 0.0 0.00 0.89 0.00 41 1014.0
20260906050504 75 0 0.0 0.0 0.00 0.89 0.00 40 1013.9
20260906050004 75 0 0.0 0.0 0.00 0.89 0.00 40 1013.9
20260906045504 75 0 0.0 0.0 0.00 0.89 0.89 40 1013.7
20260906045004 75 0 0.0 0.0 0.00 0.89 0.89 40 1014.0
20260906044504 75 0 0.0 0.0 0.00 0.89 0.89 40 1014.1
20260906044004 75 0 0.0 0.0 0.00 0.89 0.89 40 1013.8
20260906043504 75 0 0.0 0.0 0.00 0.89 0.89 40 1013.9
20260906043004 75 0 0.0 0.0 0.00 0.89 0.89 40 1013.7
20260906042525 75 0 0.0 0.0 0.00 0.89 0.89 40 1013.6
20260906042004 75 0 0.0 0.0 0.00 0.89 0.89 40 1013.6
20260906041504 75 0 0.0 0.0 0.00 0.89 0.89 40 1013.6
20260906041004 75 0 0.0 0.0 0.00 0.89 0.89 40 1013.5
20260906040504 75 0 0.0 0.0 0.00 0.89 0.89 40 1013.5
20260906040004 75 0 0.0 0.0 0.00 0.89 0.89 40 1013.5
20260906035504 75 0 0.0 0.0 0.00 0.89 0.89 40 1013.4
20260906035004 75 0 0.0 0.0 0.00 0.89 0.89 40 1013.4
20260906034504 75 0 0.0 0.0 0.00 0.89 0.89 40 1013.4
20260906034025 75 0 0.0 0.0 0.00 0.89 0.89 40 1013.4
20260906033525 75 0 0.0 0.0 0.00 0.89 0.89 40 1013.4
20260906033025 75 0 0.0 0.0 0.00 0.89 0.89 40 1013.3
20260906032506 75 0 0.0 0.0 0.00 0.89 0.89 40 1013.3
20260906032004 75 0 0.0 0.0 0.00 0.89 0.89 40 1013.2
20260906031525 75 0 0.0 0.0 0.00 0.89 0.89 40 1013.2
20260906031004 75 0 0.0 0.0 0.00 0.89 0.89 40 1013.4
20260906030504 75 0 0.0 0.0 0.00 0.89 0.89 40 1013.2
20260906030004 75 0 0.0 0.0 0.00 0.89 0.89 40 1013.2
20260906025525 75 0 0.0 0.0 0.00 0.89 0.89 40 1013.3
20260906025004 75 0 0.0 0.0 0.00 0.89 0.89 40 1013.2
20260906024525 75 0 0.0 0.0 0.00 0.89 0.89 40 1013.2
20260906024004 75 0 0.0 0.0 0.00 0.89 0.89 40 1013.2
20260906023504 76 0 0.0 0.0 0.00 0.89 0.89 40 1013.2
20260906023004 76 0 0.0 0.0 0.00 0.89 0.89 40 1013.1
20260906022504 76 0 0.0 0.0 0.00 0.89 0.89 40 1013.2
20260906022004 76 0 0.0 0.0 0.00 0.89 0.89 40 1013.0
20260906021504 76 0 0.0 0.0 0.00 0.89 0.89 40 1013.1
20260906021004 76 0 0.0 0.0 0.00 0.89 0.89 40 1012.9
20260906020504 76 0 0.0 0.0 0.00 0.89 0.89 40 1013.0
20260906020025 76 324 0.0 2.0 0.00 0.89 0.89 40 1013.1
20260906015504 76 324 0.0 2.0 0.00 0.89 0.89 40 1013.0
20260906015004 76 324 0.0 1.0 0.00 0.89 0.89 40 1013.2
20260906014504 76 324 0.0 1.0 0.00 0.89 0.89 40 1013.3
20260906014004 76 324 0.0 1.0 0.00 0.89 0.89 40 1013.3
20260906013504 76 324 0.0 1.0 0.01 0.89 0.89 40 1013.3
20260906013004 76 321 0.0 1.0 0.01 0.89 0.89 40 1013.3
20260906012504 76 319 0.0 1.0 0.02 0.89 0.89 40 1013.4
20260906012004 76 0 0.0 0.0 0.02 0.89 0.89 40 1013.3
20260906011503 76 0 0.0 0.0 0.03 0.89 0.89 40 1013.3
20260906011024 76 0 0.0 0.0 0.05 0.89 0.89 40 1013.3
20260906010504 76 0 0.0 0.0 0.06 0.89 0.89 40 1013.5
20260906010025 76 0 0.0 0.0 0.07 0.89 0.89 40 1013.6
20260906005525 76 0 0.0 0.0 0.08 0.89 0.89 40 1013.6
20260906005004 76 261 0.0 2.0 0.09 0.89 0.89 40 1013.6
20260906004504 76 261 0.0 2.0 0.09 0.89 0.89 40 1013.6
20260906004004 76 0 0.0 0.0 0.10 0.89 0.89 40 1013.7
20260906003504 76 28 0.0 1.0 0.09 0.88 0.88 40 1013.8
20260906003004 76 28 0.0 1.0 0.10 0.88 0.88 40 1013.9
20260906002504 76 0 0.0 0.0 0.10 0.87 0.87 40 1013.9
20260906002004 76 0 0.0 0.0 0.10 0.87 0.87 40 1014.0
20260906001525 76 0 0.0 0.0 0.10 0.86 0.86 40 1014.2
20260906001004 76 0 0.0 0.0 0.08 0.84 0.84 40 1014.2
20260906000504 76 28 0.0 1.0 0.08 0.83 0.83 40 1014.1
20260906000004 76 2 0.0 2.0 0.08 0.82 0.82 40 1014.2
20260905235525 76 2 0.0 2.0 0.08 0.81 0.81 40 1014.2
20260905235004 76 259 0.0 1.0 0.09 0.80 0.80 40 1014.1
20260905234504 76 259 0.0 1.0 0.11 0.80 0.80 40 1014.1
20260905234004 76 0 0.0 0.0 0.12 0.79 0.79 40 1014.2
20260905233504 76 248 0.0 1.0 0.13 0.79 0.79 40 1014.2
20260905233004 76 246 0.0 1.0 0.13 0.78 0.78 40 1014.1
20260905232504 76 153 0.0 1.0 0.13 0.77 0.77 40 1014.1
20260905232004 76 153 0.0 1.0 0.14 0.77 0.77 40 1014.1
20260905231504 76 165 0.0 1.0 0.14 0.76 0.76 40 1014.1
20260905231004 76 167 0.0 2.0 0.15 0.76 0.76 40 1014.1
20260905230504 76 163 0.0 2.0 0.14 0.75 0.75 40 1014.1
20260905230025 76 147 1.0 6.0 0.14 0.74 0.74 40 1014.2
20260905225525 77 158 2.0 6.0 0.14 0.73 0.73 40 1014.3
20260905225004 77 171 1.0 4.0 0.14 0.71 0.71 40 1014.2
20260905224504 77 153 1.0 3.0 0.17 0.69 0.69 40 1014.4
20260905224004 77 154 0.0 3.0 0.22 0.67 0.67 40 1014.5
20260905223504 77 162 0.0 2.0 0.28 0.66 0.66 40 1014.4
20260905223025 77 162 0.0 2.0 0.38 0.65 0.65 40 1014.5
20260905222504 77 166 1.0 2.0 0.51 0.64 0.64 40 1014.3
20260905222004 77 167 1.0 3.0 0.55 0.63 0.63 40 1014.2
20260905221504 77 166 0.0 3.0 0.54 0.62 0.62 40 1014.1
20260905221004 76 175 0.0 1.0 0.53 0.61 0.61 40 1014.1
20260905220504 77 175 0.0 1.0 0.53 0.61 0.61 40 1014.1
20260905220004 76 176 0.0 4.0 0.52 0.60 0.60 40 1014.3
20260905215525 77 173 1.0 4.0 0.51 0.59 0.59 41 1014.6
20260905215004 77 175 1.0 4.0 0.49 0.57 0.57 41 1014.7
20260905214504 77 131 1.0 3.0 0.44 0.52 0.52 41 1014.8
20260905214003 77 67 1.0 3.0 0.37 0.45 0.45 42 1014.9
20260905213504 78 91 2.0 4.0 0.30 0.38 0.38 45 1014.9
20260905213004 79 110 1.0 4.0 0.19 0.27 0.27 47 1014.5
20260905212503 80 112 0.0 2.0 0.05 0.13 0.13 54 1014.4
20260905212004 81 0 0.0 0.0 0.00 0.08 0.08 62 1014.4
20260905211504 81 360 0.0 2.0 0.00 0.08 0.08 66 1014.2
20260905211004 81 357 2.0 8.0 0.00 0.08 0.08 68 1014.0
20260905210504 81 349 3.0 8.0 0.00 0.08 0.08 69 1014.0
20260905210004 82 347 3.0 6.0 0.00 0.08 0.08 70 1014.0
20260905205525 82 342 4.0 10.0 0.00 0.08 0.08 70 1013.9
20260905205003 83 338 3.0 10.0 0.00 0.08 0.08 72 1013.9
20260905204503 85 324 1.0 8.0 0.00 0.08 0.08 70 1013.7
20260905204004 85 275 1.0 3.0 0.00 0.08 0.08 70 1013.7
20260905203525 85 223 1.0 5.0 0.00 0.08 0.08 70 1013.7
20260905203003 85 210 1.0 5.0 0.00 0.08 0.08 70 1013.6
20260905202503 85 210 1.0 4.0 0.00 0.08 0.08 65 1013.6
20260905202025 84 196 1.0 3.0 0.00 0.08 0.08 58 1013.7
20260905201504 83 351 1.0 4.0 0.00 0.08 0.08 52 1013.9
20260905201003 82 360 2.0 4.0 0.00 0.08 0.08 57 1014.1
20260905200503 82 360 1.0 3.0 0.00 0.08 0.08 55 1014.4
20260905200004 82 360 0.0 2.0 0.00 0.08 0.08 53 1014.6
20260905195503 82 360 1.0 2.0 0.00 0.08 0.08 52 1014.6
20260905195004 82 360 1.0 2.0 0.00 0.08 0.08 55 1014.4
20260905194524 82 360 1.0 2.0 0.00 0.08 0.08 55 1014.3
20260905194003 82 360 0.0 2.0 0.00 0.08 0.08 51 1014.0
20260905193503 82 360 1.0 4.0 0.00 0.08 0.08 56 1013.9
20260905193025 82 2 1.0 4.0 0.00 0.08 0.08 55 1013.9
20260905192503 82 5 0.0 3.0 0.00 0.08 0.08 42 1013.9
20260905192003 82 1 0.0 2.0 0.01 0.08 0.08 41 1013.9
20260905191504 81 0 0.0 0.0 0.03 0.08 0.08 41 1014.0
20260905191003 81 360 0.0 1.0 0.06 0.08 0.08 40 1014.1
20260905190503 81 357 0.0 1.0 0.08 0.08 0.08 40 1014.5
20260905190004 80 306 0.0 1.0 0.08 0.08 0.08 39 1014.4
20260905185504 80 238 1.0 2.0 0.08 0.08 0.08 40 1014.4
20260905185003 79 236 1.0 3.0 0.08 0.08 0.08 41 1014.3
20260905184504 79 237 0.0 3.0 0.08 0.08 0.08 41 1014.3
20260905184003 79 0 0.0 0.0 0.08 0.08 0.08 42 1014.5
20260905183504 79 268 0.0 2.0 0.08 0.08 0.08 42 1014.6
20260905183003 79 262 1.0 2.0 0.08 0.08 0.08 43 1014.7
20260905182503 79 209 1.0 5.0 0.08 0.08 0.08 49 1014.6
20260905182003 80 165 1.0 5.0 0.07 0.07 0.07 52 1014.7
20260905181503 81 138 1.0 3.0 0.05 0.05 0.05 61 1014.9
20260905181004 82 36 2.0 3.0 0.02 0.02 0.02 71 1014.9
20260905180503 82 54 2.0 3.0 0.00 0.00 0.00 75 1015.0
20260905180003 82 52 1.0 3.0 0.00 0.00 0.00 76 1014.7
20260905175503 82 335 1.0 3.0 0.00 0.00 0.00 75 1014.8
20260905175003 83 295 0.0 3.0 0.00 0.00 0.00 76 1014.8
20260905174524 83 234 1.0 6.0 0.00 0.00 0.00 75 1014.8
20260905174004 84 250 2.0 6.0 0.00 0.00 0.00 75 1014.9
20260905173503 86 274 2.0 5.0 0.00 0.00 0.00 74 1015.1
20260905173004 87 313 3.0 9.0 0.00 0.00 0.00 75 1015.1
20260905172503 88 319 3.0 9.0 0.00 0.00 0.00 73 1015.2
20260905172003 89 337 2.0 8.0 0.00 0.00 0.00 71 1015.2
20260905171503 90 340 4.0 11.0 0.00 0.00 0.00 70 1015.0
20260905171024 90 343 5.0 12.0 0.00 0.00 0.00 70 1015.1
20260905170503 91 15 3.0 12.0 0.00 0.00 0.00 72 1015.0
20260905170003 92 117 2.0 6.0 0.00 0.00 0.00 70 1015.0
20260905165504 92 115 2.0 6.0 0.00 0.00 0.00 70 1015.2
20260905165003 91 69 1.0 3.0 0.00 0.00 0.00 71 1015.1
20260905164503 90 344 2.0 4.0 0.00 0.00 0.00 73 1015.1
20260905164003 89 329 2.0 4.0 0.00 0.00 0.00 73 1015.3
20260905163503 89 281 1.0 3.0 0.00 0.00 0.00 73 1015.2
20260905163003 88 197 1.0 4.0 0.00 0.00 0.00 73 1015.3
20260905162503 88 167 0.0 4.0 0.00 0.00 0.00 73 1015.4
20260905162003 87 325 0.0 2.0 0.00 0.00 0.00 73 1015.6
20260905161503 87 147 1.0 3.0 0.00 0.00 0.00 74 1015.7
20260905161003 87 137 1.0 3.0 0.00 0.00 0.00 73 1015.8
20260905160504 87 68 1.0 2.0 0.00 0.00 0.00 73 1015.8
20260905160024 87 337 2.0 5.0 0.00 0.00 0.00 73 1015.9
20260905155525 86 349 2.0 5.0 0.00 0.00 0.00 73 1015.9
20260905155003 86 332 2.0 4.0 0.00 0.00 0.00 72 1015.9
20260905154503 85 326 2.0 5.0 0.00 0.00 0.00 72 1015.9
20260905154003 85 11 1.0 5.0 0.00 0.00 0.00 71 1016.0
20260905153503 85 359 2.0 5.0 0.00 0.00 0.00 69 1016.0
20260905153003 84 359 2.0 4.0 0.00 0.00 0.00 70 1015.8
20260905152524 84 358 2.0 4.0 0.00 0.00 0.00 69 1015.8
20260905152003 84 350 2.0 4.0 0.00 0.00 0.00 69 1015.8
20260905151503 83 340 2.0 4.0 0.00 0.00 0.00 69 1015.9
20260905151003 83 336 2.0 4.0 0.00 0.00 0.00 67 1015.9
20260905150503 83 339 2.0 5.0 0.00 0.00 0.00 66 1015.9
20260905150003 83 339 2.0 5.0 0.00 0.00 0.00 66 1015.9
20260905145503 82 344 2.0 5.0 0.00 0.00 0.00 65 1015.8
20260905145003 82 346 2.0 4.0 0.00 0.00 0.00 61 1015.8
20260905144503 82 354 1.0 5.0 0.00 0.00 0.00 60 1015.8
20260905144025 81 359 1.0 5.0 0.00 0.00 0.00 55 1015.8
20260905143503 81 348 1.0 4.0 0.00 0.00 0.00 54 1015.8